�������l�o���
Date,Time,MP-1(��Sv/h),MP-2(��Sv/h),MP-3(��Sv/h),MP-4(��Sv/h),MP-5(��Sv/h),MP-6(��Sv/h),MP-7(��Sv/h),����,����(m/s),���J
2018/12/29,00:00,0.224,0.193,0.311,0.292,0.276,0.155,0.094,��,9.2,��
2018/12/29,00:10,0.223,0.193,0.310,0.291,0.277,0.156,0.095,���k��,6.5,��
2018/12/29,00:20,0.224,0.192,0.312,0.291,0.276,0.155,0.095,���k��,8.1,��
2018/12/29,00:30,0.224,0.193,0.311,0.291,0.277,0.155,0.094,��,9.8,��
2018/12/29,00:40,0.223,0.193,0.311,0.291,0.277,0.155,0.095,���k��,10.0,��
2018/12/29,00:50,0.224,0.193,0.312,0.292,0.277,0.155,0.094,���k��,7.1,��
2018/12/29,01:00,0.224,0.192,0.311,0.292,0.276,0.156,0.094,��,8.8,��
2018/12/29,01:10,0.223,0.192,0.312,0.292,0.276,0.155,0.094,��,9.8,��
2018/12/29,01:20,0.224,0.192,0.310,0.293,0.276,0.156,0.095,���k��,8.8,��
2018/12/29,01:30,0.224,0.192,0.311,0.291,0.277,0.155,0.095,���k��,10.0,��
2018/12/29,01:40,0.224,0.192,0.311,0.292,0.277,0.155,0.095,���k��,7.3,��
2018/12/29,01:50,0.224,0.192,0.310,0.291,0.277,0.155,0.094,��,10.6,��
2018/12/29,02:00,0.223,0.191,0.312,0.292,0.277,0.156,0.094,��,11.5,��
2018/12/29,02:10,0.223,0.192,0.311,0.292,0.278,0.155,0.094,��,8.4,��
2018/12/29,02:20,0.224,0.193,0.311,0.291,0.277,0.155,0.095,��,10.9,��
2018/12/29,02:30,0.224,0.192,0.311,0.291,0.277,0.155,0.094,��,9.2,��
2018/12/29,02:40,0.225,0.193,0.311,0.291,0.277,0.155,0.095,��,7.9,��
2018/12/29,02:50,0.224,0.193,0.311,0.291,0.278,0.155,0.094,���k��,8.8,��
2018/12/29,03:00,0.224,0.193,0.312,0.292,0.276,0.156,0.094,��,10.0,��
2018/12/29,03:10,0.225,0.193,0.312,0.291,0.277,0.154,0.094,���k��,9.2,��
2018/12/29,03:20,0.224,0.192,0.311,0.291,0.277,0.155,0.095,���k��,10.6,��
2018/12/29,03:30,0.223,0.192,0.311,0.292,0.276,0.155,0.095,���k��,13.4,��
2018/12/29,03:40,0.225,0.192,0.311,0.291,0.277,0.155,0.094,���k��,9.8,��
2018/12/29,03:50,0.224,0.191,0.312,0.291,0.276,0.155,0.093,���k��,11.4,��
2018/12/29,04:00,0.224,0.192,0.311,0.290,0.277,0.155,0.094,���k��,12.0,��
2018/12/29,04:10,0.224,0.192,0.312,0.291,0.278,0.155,0.094,���k��,8.5,��
2018/12/29,04:20,0.223,0.192,0.312,0.291,0.277,0.156,0.094,���k��,9.6,��
2018/12/29,04:30,0.224,0.193,0.312,0.292,0.277,0.154,0.094,���k��,8.1,��
2018/12/29,04:40,0.223,0.192,0.312,0.292,0.276,0.155,0.093,���k��,7.9,��
2018/12/29,04:50,0.224,0.192,0.312,0.292,0.276,0.154,0.095,���k��,8.2,��
2018/12/29,05:00,0.224,0.193,0.311,0.291,0.276,0.155,0.095,�k��,6.5,��
2018/12/29,05:10,0.224,0.193,0.312,0.292,0.277,0.156,0.094,�k��,4.6,��
2018/12/29,05:20,0.223,0.192,0.313,0.292,0.277,0.155,0.095,�k��,4.7,��
2018/12/29,05:30,0.224,0.192,0.312,0.291,0.276,0.154,0.094,�k��,4.4,��
2018/12/29,05:40,0.224,0.192,0.313,0.291,0.275,0.155,0.094,�k��,4.1,��
2018/12/29,05:50,0.223,0.192,0.312,0.292,0.276,0.155,0.094,�k��,3.3,��
2018/12/29,06:00,0.224,0.192,0.311,0.292,0.277,0.155,0.095,�k��,1.7,��
2018/12/29,06:10,0.224,0.193,0.312,0.292,0.277,0.154,0.094,���k��,0.9,��
2018/12/29,06:20,0.224,0.192,0.312,0.291,0.277,0.155,0.094,�k�k��,0.8,��
2018/12/29,06:30,0.223,0.193,0.311,0.291,0.277,0.155,0.094,�k�k��,0.7,��
2018/12/29,06:40,0.224,0.193,0.311,0.292,0.277,0.154,0.094,�k,1.5,��
2018/12/29,06:50,0.224,0.193,0.311,0.291,0.276,0.156,0.094,�k,2.5,��
2018/12/29,07:00,0.224,0.192,0.310,0.292,0.276,0.155,0.095,�k,1.0,��
2018/12/29,07:10,0.224,0.192,0.311,0.291,0.276,0.155,0.095,-,CALM,��
2018/12/29,07:20,0.224,0.192,0.311,0.291,0.275,0.155,0.094,-,CALM,��
2018/12/29,07:30,0.223,0.193,0.311,0.292,0.275,0.155,0.095,-,CALM,��
2018/12/29,07:40,0.223,0.192,0.311,0.291,0.275,0.155,0.095,-,CALM,��
2018/12/29,07:50,0.224,0.192,0.311,0.292,0.275,0.155,0.095,���쓌,0.6,��
2018/12/29,08:00,0.225,0.192,0.311,0.292,0.276,0.155,0.094,�쓌,1.3,��
2018/12/29,08:10,0.225,0.192,0.312,0.291,0.277,0.155,0.094,��쐼,2.0,��
2018/12/29,08:20,0.224,0.192,0.311,0.290,0.277,0.155,0.094,��쐼,3.3,��
2018/12/29,08:30,0.223,0.193,0.311,0.291,0.276,0.155,0.095,�쐼,2.2,��
2018/12/29,08:40,0.222,0.192,0.310,0.292,0.276,0.154,0.095,��쐼,2.8,��
2018/12/29,08:50,0.224,0.192,0.310,0.291,0.277,0.154,0.094,��쐼,2.5,��
2018/12/29,09:00,0.223,0.192,0.312,0.291,0.277,0.156,0.095,��,3.8,��
2018/12/29,09:10,0.224,0.192,0.312,0.291,0.277,0.154,0.095,��쐼,3.2,��
2018/12/29,09:20,0.223,0.193,0.312,0.291,0.277,0.155,0.095,��쐼,3.4,��
2018/12/29,09:30,0.223,0.191,0.311,0.293,0.276,0.155,0.094,��,3.0,��
2018/12/29,09:40,0.224,0.192,0.312,0.292,0.276,0.155,0.095,��,3.0,��
2018/12/29,09:50,0.224,0.192,0.311,0.293,0.277,0.156,0.094,��,3.7,��
2018/12/29,10:00,0.224,0.191,0.311,0.293,0.277,0.156,0.095,��,2.1,��
2018/12/29,10:10,0.224,0.193,0.311,0.292,0.277,0.156,0.095,�쐼,3.0,��
2018/12/29,10:20,0.223,0.192,0.311,0.292,0.276,0.155,0.095,�쐼,4.1,��
2018/12/29,10:30,0.224,0.193,0.311,0.292,0.275,0.155,0.095,�쐼,2.8,��
2018/12/29,10:40,0.223,0.193,0.312,0.292,0.277,0.155,0.095,���쐼,3.7,��
2018/12/29,10:50,0.225,0.192,0.312,0.292,0.276,0.156,0.095,���쐼,5.6,��
2018/12/29,11:00,0.223,0.192,0.311,0.292,0.276,0.156,0.095,��,5.8,��
2018/12/29,11:10,0.223,0.192,0.311,0.292,0.276,0.155,0.095,��,8.1,��
2018/12/29,11:20,0.223,0.193,0.310,0.292,0.278,0.156,0.094,��,6.5,��
2018/12/29,11:30,0.223,0.191,0.311,0.292,0.277,0.156,0.095,��,7.1,��
2018/12/29,11:40,0.223,0.192,0.310,0.291,0.276,0.155,0.095,��,8.1,��
2018/12/29,11:50,0.224,0.192,0.310,0.291,0.279,0.156,0.094,��,8.1,��
2018/12/29,12:00,0.224,0.192,0.312,0.292,0.277,0.156,0.095,��,11.1,��
2018/12/29,12:10,0.223,0.191,0.312,0.292,0.276,0.156,0.094,��,7.7,��
2018/12/29,12:20,0.225,0.192,0.311,0.290,0.279,0.156,0.095,��,8.5,��
2018/12/29,12:30,0.224,0.193,0.310,0.292,0.279,0.156,0.094,��,8.1,��
2018/12/29,12:40,0.224,0.192,0.313,0.292,0.276,0.155,0.095,��,9.2,��
2018/12/29,12:50,0.225,0.192,0.309,0.291,0.278,0.156,0.095,��,9.8,��
2018/12/29,13:00,0.224,0.192,0.312,0.292,0.278,0.155,0.095,��,7.9,��
2018/12/29,13:10,0.224,0.192,0.312,0.293,0.277,0.156,0.094,��,10.9,��
2018/12/29,13:20,0.224,0.192,0.313,0.291,0.278,0.157,0.094,��,11.2,��
2018/12/29,13:30,0.225,0.192,0.312,0.293,0.278,0.156,0.095,��,8.8,��
2018/12/29,13:40,0.224,0.193,0.312,0.292,0.278,0.155,0.094,��,8.8,��
2018/12/29,13:50,0.224,0.193,0.312,0.291,0.278,0.155,0.095,���k��,7.5,��
2018/12/29,14:00,0.224,0.192,0.312,0.292,0.278,0.155,0.095,��,9.2,��
2018/12/29,14:10,0.225,0.192,0.312,0.292,0.280,0.155,0.095,��,9.5,�L
2018/12/29,14:20,0.226,0.193,0.311,0.291,0.277,0.156,0.094,���k��,8.2,��
2018/12/29,14:30,0.224,0.193,0.313,0.291,0.277,0.156,0.095,���k��,10.6,��
2018/12/29,14:40,0.227,0.192,0.312,0.294,0.279,0.155,0.095,��,8.6,��
2018/12/29,14:50,0.225,0.192,0.313,0.292,0.279,0.155,0.095,���k��,8.5,��
2018/12/29,15:00,0.225,0.193,0.312,0.292,0.279,0.156,0.094,���k��,7.3,��
2018/12/29,15:10,0.225,0.193,0.311,0.293,0.278,0.156,0.094,��,7.5,��
2018/12/29,15:20,0.224,0.193,0.311,0.292,0.279,0.155,0.095,���k��,10.3,��
2018/12/29,15:30,0.224,0.192,0.312,0.292,0.278,0.155,0.094,���k��,10.3,��
2018/12/29,15:40,0.224,0.192,0.313,0.293,0.277,0.154,0.094,��,10.0,��
2018/12/29,15:50,0.225,0.193,0.313,0.292,0.277,0.156,0.095,���k��,9.5,��
2018/12/29,16:00,0.224,0.193,0.312,0.292,0.277,0.156,0.094,��,12.3,��
2018/12/29,16:10,0.225,0.193,0.311,0.294,0.277,0.155,0.095,��,12.8,��
2018/12/29,16:20,0.224,0.192,0.311,0.294,0.277,0.155,0.094,��,11.1,��
2018/12/29,16:30,0.225,0.192,0.312,0.292,0.278,0.157,0.094,��,11.7,��
2018/12/29,16:40,0.224,0.192,0.312,0.293,0.278,0.155,0.094,��,12.9,��
2018/12/29,16:50,0.223,0.191,0.313,0.292,0.277,0.156,0.094,��,16.2,��
2018/12/29,17:00,0.225,0.192,0.313,0.292,0.280,0.156,0.095,���k��,14.0,��
2018/12/29,17:10,0.224,0.193,0.312,0.292,0.278,0.156,0.095,��,11.4,��
2018/12/29,17:20,0.225,0.193,0.313,0.293,0.278,0.155,0.094,��,11.1,��
2018/12/29,17:30,0.224,0.193,0.313,0.292,0.279,0.155,0.094,���k��,12.8,��
2018/12/29,17:40,0.225,0.192,0.313,0.293,0.279,0.155,0.094,���k��,9.5,��
2018/12/29,17:50,0.224,0.192,0.314,0.292,0.279,0.156,0.095,��,11.4,��
2018/12/29,18:00,0.224,0.193,0.312,0.291,0.277,0.156,0.094,���k��,10.3,��
2018/12/29,18:10,0.225,0.193,0.314,0.292,0.277,0.156,0.094,��,10.6,��
2018/12/29,18:20,0.225,0.193,0.312,0.292,0.278,0.156,0.095,���k��,8.4,��
2018/12/29,18:30,0.225,0.194,0.312,0.293,0.278,0.156,0.095,��,5.9,��
2018/12/29,18:40,0.223,0.194,0.313,0.291,0.279,0.156,0.095,��,6.7,��
2018/12/29,18:50,0.224,0.194,0.312,0.293,0.278,0.156,0.094,���k��,6.4,��
2018/12/29,19:00,0.226,0.192,0.313,0.291,0.278,0.156,0.094,���k��,7.3,��
2018/12/29,19:10,0.224,0.192,0.314,0.293,0.278,0.156,0.095,��,10.3,��
2018/12/29,19:20,0.225,0.193,0.312,0.293,0.279,0.156,0.094,���k��,7.0,��
2018/12/29,19:30,0.225,0.193,0.313,0.292,0.279,0.155,0.094,���k��,7.5,��
2018/12/29,19:40,0.224,0.193,0.312,0.293,0.278,0.155,0.096,���k��,9.0,��
2018/12/29,19:50,0.225,0.193,0.312,0.292,0.277,0.156,0.094,���k��,10.4,��
2018/12/29,20:00,0.224,0.192,0.312,0.292,0.277,0.156,0.094,���k��,7.8,��
2018/12/29,20:10,0.225,0.192,0.312,0.293,0.277,0.155,0.096,��,9.5,��
2018/12/29,20:20,0.225,0.193,0.313,0.292,0.279,0.155,0.094,���k��,8.1,��
2018/12/29,20:30,0.223,0.194,0.312,0.292,0.278,0.156,0.095,���k��,7.0,��
2018/12/29,20:40,0.224,0.194,0.312,0.292,0.277,0.156,0.095,���k��,8.4,��
2018/12/29,20:50,0.224,0.192,0.312,0.291,0.277,0.156,0.095,���k��,4.2,��
2018/12/29,21:00,0.225,0.194,0.313,0.294,0.278,0.156,0.095,���k��,6.4,��
2018/12/29,21:10,0.225,0.193,0.313,0.293,0.277,0.156,0.094,�k��,5.4,��
2018/12/29,21:20,0.223,0.193,0.312,0.293,0.276,0.156,0.095,�k��,5.1,��
2018/12/29,21:30,0.224,0.193,0.312,0.291,0.277,0.156,0.094,�k��,2.9,��
2018/12/29,21:40,0.225,0.193,0.312,0.293,0.276,0.156,0.094,�k�k��,1.8,��
2018/12/29,21:50,0.224,0.193,0.312,0.293,0.278,0.155,0.094,�k�k��,3.2,��
2018/12/29,22:00,0.225,0.192,0.312,0.292,0.277,0.155,0.095,�k�k��,4.4,��
2018/12/29,22:10,0.224,0.192,0.313,0.291,0.277,0.157,0.095,�k�k��,5.4,��
2018/12/29,22:20,0.225,0.191,0.313,0.292,0.277,0.156,0.095,�k�k��,4.4,��
2018/12/29,22:30,0.225,0.192,0.313,0.291,0.276,0.156,0.095,�k�k��,4.4,��
2018/12/29,22:40,0.225,0.194,0.313,0.292,0.278,0.155,0.094,�k��,4.5,��
2018/12/29,22:50,0.225,0.192,0.312,0.292,0.277,0.156,0.094,�k��,4.1,��
2018/12/29,23:00,0.224,0.193,0.312,0.292,0.278,0.156,0.095,���k��,4.9,��
2018/12/29,23:10,0.226,0.193,0.312,0.291,0.277,0.155,0.094,���k��,4.5,��
2018/12/29,23:20,0.225,0.194,0.312,0.292,0.276,0.156,0.094,���k��,4.0,��
2018/12/29,23:30,0.224,0.193,0.313,0.294,0.277,0.156,0.094,���k��,5.8,��
2018/12/29,23:40,0.224,0.194,0.312,0.292,0.276,0.156,0.094,���k��,5.5,��
2018/12/29,23:50,0.224,0.192,0.312,0.293,0.276,0.155,0.095,���k��,6.5,��
